[ hide orbit diagram ]
For accurate long-term ephemerides, please instead use our Horizons system.This orbit viewer was implemented using two-body methods, and hence should not be used for determining accurate long-term trajectories (over several years or decades) or planetary encounter circumstances.
Orbital Elements at Epoch 2459000.5 (2020-May-31.0) TDB
Reference: JPL 32 (heliocentric ecliptic J2000)
Element | Value | Uncertainty (1-sigma) | Units |
e | .1854067894837134 | 3.5298e-08 | |
a | 2.281778197322062 | 5.2883e-09 | au |
q | 1.858721027442643 | 8.0054e-08 | au |
i | 3.872708111437908 | 3.3337e-06 | deg |
node | 108.4215727718515 | 5.3363e-05 | deg |
peri | 320.1765822343524 | 5.4022e-05 | deg |
M | 168.6880085625774 | 9.7585e-06 | deg |
tp | 2458410.583862872644 (2018-Oct-19.08386287) | 3.3279e-05 | TDB |
period | 1258.950242969205 3.45 | 4.3767e-06 1.198e-08 | d yr |
n | .2859525243435739 | 9.941e-10 | deg/d |
Q | 2.70483536720148 | 6.2688e-09 | au |
|
| | Orbit Determination Parameters
Additional Information
|
[ show covariance matrix ]
Physical Parameter Table
Parameter |
Symbol |
Value |
Units |
Sigma |
Reference |
Notes |
absolute magnitude |
H |
11.3 |
|
n/a |
MPO473769 |
|
diameter |
diameter |
14.008 |
km |
1.939 |
urn:nasa:pds:neowise_diameters_albedos::2.0[mainbelt] (http://adsabs.harvard.edu/abs/2012ApJ...759L...8M) |
|
rotation period |
rot_per |
11.9404 |
h |
n/a |
LCDB (Rev. 2020-October); Warner et al., 2009 |
Result based on less than full coverage, so that the period may be wrong by 30 percent or so. Published Reference List: [Behrend, R. (2002) Observatoire de Geneve web site, http://obswww.unige.ch/~behrend/page_cou.html] |
geometric albedo |
albedo |
0.282 |
|
0.082 |
urn:nasa:pds:neowise_diameters_albedos::2.0[mainbelt] (http://adsabs.harvard.edu/abs/2012ApJ...759L...8M) |
|
B-V |
BV |
0.882 |
|
0.020 |
EAR-A-5-DDR-UBV-MEAN-VALUES-V1.2 |
#obs=1; phase=3.67 deg. |
U-B |
UB |
0.489 |
|
0.020 |
EAR-A-5-DDR-UBV-MEAN-VALUES-V1.2 |
#obs=1; phase=3.67 deg. |
Tholen spectral type |
spec_T |
S |
|
n/a |
EAR-A-5-DDR-TAXONOMY-V4.0 |
used 7 color indices |
|
548 Kressida (A904 TF) Discovered 1904-Oct-14 by Gotz, P. at Heidelberg |
Reference: DISCOVERY.DB | Last Updated: 2003-08-29 |
|
[ show close-approach data ]
|